Regional Weather Roundup
Issued by NWS Green Bay, WI

Home | Current Version | Previous Version | Graphics & Text | Print | Product List | Glossary Off
Versions: 1 2 3 4 5 6 7 8 9 10 11 12 13 14 15 16 17 18 19 20 21 22 23 24 25 26 27 28 29 30 31 32 33 34 35 36 37 38 39 40 41 42 43 44 45 46 47 48 49 50

000
ASUS43 KGRB 290110
RWRGRB

NORTH-CENTRAL AND NORTHEAST WISCONSIN REGIONAL WEATHER ROUNDUP
NATIONAL WEATHER SERVICE GREEN BAY WI
700 PM CST SUN DEC 28 2014

WIZ005-009-010>012-018-019-290200-
NORTH CENTRAL WISCONSIN

CITY           SKY/WX    TMP DP  RH WIND       PRES   REMARKS
IRONWOOD       CLOUDY    10   5  79 W9        30.20R WCI  -2
MANITOWISH WTR   N/A     -5  -8  88 CALM      30.19R FOG
ARBOR VITAE    PTCLDY     4   1  86 CALM      30.19R
EAGLE RIVER    CLEAR      3  -1  81 NW3       30.18R
LAND O LAKES   CLEAR      0  -3  87 CALM      30.18R
RHINELANDER    CLEAR      6   3  87 NW5       30.18R WCI  -3
PHILLIPS       CLEAR      0  -2  90 CALM      30.21R
ANTIGO         CLEAR      8   5  88 N5        30.19R WCI  -1
TOMAHAWK       CLEAR      6   4  89 CALM      30.21R
MERRILL        CLEAR     12   8  84 N5        30.21R WCI   4
$$

WIZ013-073-290200-
NORTHEAST WISCONSIN

CITY           SKY/WX    TMP DP  RH WIND       PRES   REMARKS
IRON MOUNTAIN    N/A      6   2  83 NW6       30.18R WCI  -4
MARINETTE      CLOUDY    21  12  68 NW6       30.21R
OCONTO         CLOUDY    22  12  64 N6        30.22R
$$

WIZ017-030-035>037-045-290200-
CENTRAL WISCONSIN

CITY           SKY/WX    TMP DP  RH WIND       PRES   REMARKS
MEDFORD        CLEAR      6   3  88 N3        30.20R
WAUSAU         CLEAR     13  10  88 NW6       30.20R WCI   4
MOSINEE        CLEAR     14  12  92 W7        30.22R WCI   4
MARSHFIELD     CLEAR     12   8  84 NW5       30.22R WCI   4
WISC RAPIDS    MOCLDY    19  12  74 N7        30.24R WCI  10
STEVENS POINT  CLOUDY    17  13  86 NW5       30.23R WCI  10
WAUPACA        CLOUDY    25  17  72 NW7       30.23R
SHAWANO        CLOUDY    24  18  78 W3        30.23R
CLINTONVILLE   CLOUDY    23  18  80 NW8       30.22R
$$

WIZ038-039-048-051-290200-
FOX VALLEY

CITY           SKY/WX    TMP DP  RH WIND       PRES   REMARKS
NWS GREEN BAY  CLOUDY    25  18  74 NW7       30.22R
APPLETON       CLOUDY    25  18  74 NW9       30.21R
OSHKOSH        CLOUDY    27  18  69 NW12      30.20R
FOND DU LAC    CLOUDY    28  20  71 NW5       30.19R
$$

WIZ022-050-052-290200-
EAST CENTRAL WISCONSIN

CITY           SKY/WX    TMP DP  RH WIND       PRES   REMARKS
STURGEON BAY   CLOUDY    21   7  53 NW13      30.22R WCI   9
MANITOWOC      FLURRIES  27  21  78 N10       30.21R
SHEBOYGAN      CLOUDY    27  19  72 CALM      30.20R
$$

LMZ563-521-522-541>543-290200-
LAKESHORE

STATION/POSITION TIME  TEMP    WIND        PRES    VSBY  WAVE
                       AIR SEA DIR/SP/G                  HT/PER
                 (UTC) (F)     (DEG/KT/KT) (MB)    (MI)  (FT/S)
SHEBOYGAN LKSHOR 0100   28 37  330/  3/  3 1024.0R
KEWAUNEE LKSHORE 0100   25     330/  7/ 10 1021.9R
ALGOMA MARINA    0000          330/ 12/ 16   N/A
NORTHPORT PIER   0100   23     330/ 19/ 22 1022.7R
SISTER BAY LKSHO 0000          330/ 19/ 22   N/A
CHAMBERS ISLAND  0100   23     310/ 12/ 17 1023.0R
MENOMINEE LKSHOR 0100   22     290/  8/ 12 1023.7R
$$



USA.gov is the U.S. government's official web portal to all federal, state and local government web resources and services.